K4AVM-13 Weather Reports


time (UTC)temp
C
wind
direction
speed
KPH
gust
KPH
rain 1hr
cm
rain 24hr
cm
rain mn
cm
humidity
%
barometer
mb
20260506045046 20 176 3.2 4.8 0.00 0.00 0.00 72 1014.8
20260506044544 20 113 3.2 6.4 0.00 0.00 0.00 72 1014.8
20260506044041 20 185 4.8 11.3 0.00 0.00 0.00 71 1014.9
20260506043538 20 177 4.8 11.3 0.00 0.00 0.00 71 1014.8
20260506043036 20 150 3.2 12.9 0.00 0.00 0.00 70 1014.8
20260506042535 20 199 6.4 6.4 0.00 0.00 0.00 70 1014.7
20260506042033 20 184 6.4 9.7 0.00 0.00 0.00 70 1014.6
20260506041531 20 166 0.0 4.8 0.00 0.00 0.00 69 1014.7
20260506041027 20 182 1.6 9.7 0.00 0.00 0.00 69 1014.6
20260506040526 20 145 1.6 4.8 0.00 0.00 0.00 68 1014.6
20260506040021 20 187 3.2 12.9 0.00 0.00 0.00 68 1014.7
20260506035518 20 169 3.2 6.4 0.00 0.00 0.00 68 1014.5
20260506035015 20 107 3.2 11.3 0.00 0.00 0.00 67 1014.6
20260506034513 21 172 1.6 11.3 0.00 0.00 0.00 66 1014.6
20260506034009 21 137 3.2 12.9 0.00 0.00 0.00 65 1014.7
20260506033507 21 200 1.6 4.8 0.00 0.00 0.00 64 1014.5
20260506033004 21 165 3.2 4.8 0.00 0.00 0.00 63 1014.6
20260506032501 21 132 0.0 6.4 0.00 0.00 0.00 63 1014.7
20260506031956 21 204 0.0 1.6 0.00 0.00 0.00 62 1014.6
20260506031455 21 132 0.0 4.8 0.00 0.00 0.00 61 1014.6
20260506030952 21 135 0.0 3.2 0.00 0.00 0.00 60 1014.4
20260506030450 21 145 1.6 1.6 0.00 0.00 0.00 59 1014.4
20260506025946 21 180 3.2 4.8 0.00 0.00 0.00 58 1014.4
20260506025443 22 159 0.0 3.2 0.00 0.00 0.00 58 1014.3
20260506024940 22 207 4.8 6.4 0.00 0.00 0.00 57 1014.6
20260506024437 22 227 4.8 11.3 0.00 0.00 0.00 57 1014.4
20260506023932 22 154 4.8 6.4 0.00 0.00 0.00 56 1014.5
20260506023430 22 169 1.6 1.6 0.00 0.00 0.00 56 1014.4
20260506022926 22 169 1.6 3.2 0.00 0.00 0.00 55 1014.6
20260506022424 22 144 0.0 4.8 0.00 0.00 0.00 54 1014.5
20260506021922 22 155 1.6 6.4 0.00 0.00 0.00 54 1014.4
20260506021419 22 172 1.6 3.2 0.00 0.00 0.00 54 1014.4
20260506020916 22 112 6.4 6.4 0.00 0.00 0.00 53 1014.3
20260506020414 22 129 0.0 3.2 0.00 0.00 0.00 53 1014.3
20260506015911 22 154 0.0 1.6 0.00 0.00 0.00 53 1014.3
20260506015408 22 169 0.0 4.8 0.00 0.00 0.00 53 1014.4
20260506014905 22 141 1.6 3.2 0.00 0.00 0.00 52 1014.3
20260506014402 22 126 0.0 6.4 0.00 0.00 0.00 52 1014.2
20260506013858 22 194 0.0 11.3 0.00 0.00 0.00 52 1014.2
20260506013356 22 195 3.2 6.4 0.00 0.00 0.00 52 1014.3
20260506012852 23 155 1.6 9.7 0.00 0.00 0.00 52 1014.1
20260506012349 23 149 3.2 4.8 0.00 0.00 0.00 51 1014.0
20260506011846 23 123 0.0 11.3 0.00 0.00 0.00 51 1014.2
20260506011343 23 151 0.0 4.8 0.00 0.00 0.00 51 1013.9
20260506010840 23 168 3.2 4.8 0.00 0.00 0.00 51 1013.9
20260506010338 23 151 0.0 3.2 0.00 0.00 0.00 50 1013.9
20260506005835 23 145 1.6 6.4 0.00 0.00 0.00 49 1013.9
20260506005332 23 141 1.6 6.4 0.00 0.00 0.00 49 1013.7
20260506004828 23 145 1.6 4.8 0.00 0.00 0.00 48 1013.8
20260506004326 23 146 0.0 4.8 0.00 0.00 0.00 48 1013.6
20260506003821 23 149 0.0 9.7 0.00 0.00 0.00 47 1013.5
20260506003318 23 196 4.8 6.4 0.00 0.00 0.00 47 1013.6
20260506002814 24 123 1.6 4.8 0.00 0.00 0.00 47 1013.5
20260506002311 24 155 0.0 14.5 0.00 0.00 0.00 46 1013.6
20260506001806 24 164 3.2 9.7 0.00 0.00 0.00 46 1013.3
20260506001304 24 119 3.2 4.8 0.00 0.00 0.00 46 1013.3
20260506000801 24 122 1.6 6.4 0.00 0.00 0.00 46 1013.3
20260506000259 24 157 1.6 11.3 0.00 0.00 0.00 45 1013.4
20260505235755 24 145 1.6 4.8 0.00 0.00 0.00 45 1013.4
20260505235253 25 155 1.6 9.7 0.00 0.00 0.00 44 1013.3
20260505234749 25 168 8.0 11.3 0.00 0.00 0.00 44 1013.4
20260505234247 25 126 4.8 6.4 0.00 0.00 0.00 44 1013.3
20260505233743 25 174 3.2 9.7 0.00 0.00 0.00 44 1013.1
20260505233242 25 142 1.6 6.4 0.00 0.00 0.00 44 1013.3
20260505232738 25 166 3.2 4.8 0.00 0.00 0.00 44 1013.4
20260505232236 25 141 4.8 14.5 0.00 0.00 0.00 44 1013.2
20260505231732 25 161 0.0 6.4 0.00 0.00 0.00 44 1013.2
20260505231232 25 158 0.0 1.6 0.00 0.00 0.00 44 1013.3
20260505230729 25 159 0.0 9.7 0.00 0.00 0.00 43 1013.1
20260505230226 25 171 0.0 9.7 0.00 0.00 0.00 42 1013.3
20260505225722 26 186 1.6 6.4 0.00 0.00 0.00 42 1013.3
20260505225219 26 213 3.2 17.7 0.00 0.00 0.00 41 1013.1
20260505224715 26 160 4.8 11.3 0.00 0.00 0.00 41 1013.1
20260505224213 26 135 1.6 9.7 0.00 0.00 0.00 41 1013.1
20260505223710 26 137 0.0 9.7 0.00 0.00 0.00 40 1013.2
20260505223206 26 171 1.6 6.4 0.00 0.00 0.00 40 1013.3
20260505222702 26 102 1.6 4.8 0.00 0.00 0.00 40 1013.2
20260505222158 26 161 1.6 12.9 0.00 0.00 0.00 39 1013.0
20260505221655 26 162 1.6 9.7 0.00 0.00 0.00 38 1013.1
20260505221152 27 233 4.8 6.4 0.00 0.00 0.00 38 1013.1
20260505220649 27 164 1.6 9.7 0.00 0.00 0.00 38 1013.0
20260505220147 27 147 3.2 6.4 0.00 0.00 0.00 37 1012.9
20260505215644 27 155 0.0 4.8 0.00 0.00 0.00 38 1013.0
20260505215142 27 159 1.6 4.8 0.00 0.00 0.00 37 1012.8
20260505214640 27 120 3.2 9.7 0.00 0.00 0.00 36 1013.0
20260505214137 27 122 4.8 6.4 0.00 0.00 0.00 37 1012.7
20260505213634 27 188 3.2 9.7 0.00 0.00 0.00 35 1012.8
20260505213131 27 155 3.2 17.7 0.00 0.00 0.00 34 1012.8
20260505212627 28 182 3.2 9.7 0.00 0.00 0.00 33 1012.8
20260505212125 28 201 3.2 16.1 0.00 0.00 0.00 33 1012.9
20260505211621 28 358 4.8 4.8 0.00 0.00 0.00 33 1013.0
20260505211119 28 160 6.4 11.3 0.00 0.00 0.00 32 1012.8
20260505210615 28 105 4.8 6.4 0.00 0.00 0.00 32 1012.8
20260505210112 28 180 4.8 12.9 0.00 0.00 0.00 32 1013.0
20260505205610 28 165 3.2 9.7 0.00 0.00 0.00 31 1013.0
20260505205107 28 143 1.6 11.3 0.00 0.00 0.00 32 1012.9
20260505204604 28 192 3.2 4.8 0.00 0.00 0.00 32 1012.6
20260505204102 29 136 1.6 4.8 0.00 0.00 0.00 29 1012.8
20260505203558 28 239 3.2 6.4 0.00 0.00 0.00 29 1012.8
20260505203055 29 219 6.4 9.7 0.00 0.00 0.00 29 1013.0
20260505202551 29 126 1.6 9.7 0.00 0.00 0.00 29 1013.0
20260505202047 29 119 4.8 6.4 0.00 0.00 0.00 30 1012.9
20260505201544 29 212 1.6 4.8 0.00 0.00 0.00 30 1012.7
20260505201042 28 131 4.8 9.7 0.00 0.00 0.00 30 1012.9
20260505200539 30 114 4.8 11.3 0.00 0.00 0.00 31 1013.0
20260505200036 29 173 3.2 6.4 0.00 0.00 0.00 29 1013.1
20260505195532 29 239 1.6 9.7 0.00 0.00 0.00 30 1013.2
20260505195030 28 157 3.2 9.7 0.00 0.00 0.00 28 1013.2
20260505194527 29 134 4.8 22.5 0.00 0.00 0.00 28 1013.4
20260505194022 29 203 4.8 6.4 0.00 0.00 0.00 29 1013.4
20260505193520 28 166 3.2 11.3 0.00 0.00 0.00 29 1013.5
20260505193017 30 130 6.4 11.3 0.00 0.00 0.00 28 1013.3
20260505192516 29 194 4.8 6.4 0.00 0.00 0.00 28 1013.7
20260505192013 29 200 1.6 6.4 0.00 0.00 0.00 29 1013.6
20260505191511 29 242 3.2 4.8 0.00 0.00 0.00 31 1013.7
20260505191008 28 182 4.8 6.4 0.00 0.00 0.00 31 1013.8
20260505190503 28 184 6.4 6.4 0.00 0.00 0.00 30 1013.8
20260505185959 28 217 4.8 12.9 0.00 0.00 0.00 32 1013.9
20260505185456 29 148 3.2 9.7 0.00 0.00 0.00 31 1014.0
20260505184952 28 164 6.4 11.3 0.00 0.00 0.00 32 1014.3
20260505184449 28 189 8.0 14.5 0.00 0.00 0.00 30 1014.2
20260505183945 28 143 4.8 12.9 0.00 0.00 0.00 30 1014.2
20260505183443 28 190 6.4 9.7 0.00 0.00 0.00 30 1014.3
20260505182939 29 143 6.4 16.1 0.00 0.00 0.00 30 1014.2
20260505182437 28 133 6.4 14.5 0.00 0.00 0.00 30 1014.2
20260505181932 29 199 6.4 9.7 0.00 0.00 0.00 32 1014.2
20260505181430 28 202 3.2 6.4 0.00 0.00 0.00 33 1014.4
20260505180927 28 121 3.2 14.5 0.00 0.00 0.00 33 1014.4
20260505180423 28 152 1.6 9.7 0.00 0.00 0.00 34 1014.4
20260505175920 28 151 1.6 9.7 0.00 0.00 0.00 35 1014.7
20260505175416 28 223 4.8 9.7 0.00 0.00 0.00 34 1014.7
20260505174912 28 196 6.4 12.9 0.00 0.00 0.00 33 1014.7
20260505174410 28 199 3.2 9.7 0.00 0.00 0.00 35 1014.8
20260505173906 28 150 1.6 3.2 0.00 0.00 0.00 37 1014.9
20260505173403 28 194 6.4 9.7 0.00 0.00 0.00 36 1014.9
20260505172900 27 175 4.8 14.5 0.00 0.00 0.00 38 1015.0
20260505172358 28 159 1.6 3.2 0.00 0.00 0.00 38 1015.0
20260505171857 27 150 0.0 9.7 0.00 0.00 0.00 40 1015.2
20260505171354 27 174 0.0 11.3 0.00 0.00 0.00 42 1015.1
20260505170851 28 210 1.6 9.7 0.00 0.00 0.00 40 1015.2
20260505170348 27 107 3.2 4.8 0.00 0.00 0.00 42 1015.1
20260505165843 27 60 3.2 11.3 0.00 0.00 0.00 40 1015.2
20260505165339 27 122 1.6 4.8 0.00 0.00 0.00 42 1015.3
20260505164835 27 209 8.0 11.3 0.00 0.00 0.00 41 1015.3
20260505164331 27 146 1.6 6.4 0.00 0.00 0.00 42 1015.5
20260505163830 26 189 1.6 4.8 0.00 0.00 0.00 42 1015.3
20260505163328 27 168 3.2 9.7 0.00 0.00 0.00 44 1015.3
20260505162826 27 187 1.6 6.4 0.00 0.00 0.00 42 1015.5
20260505162322 27 201 1.6 4.8 0.00 0.00 0.00 42 1015.5
20260505161819 26 133 4.8 4.8 0.00 0.00 0.00 44 1015.8
20260505161317 26 110 4.8 4.8 0.00 0.00 0.00 45 1015.9
20260505160814 26 192 6.4 6.4 0.00 0.00 0.00 46 1015.8
20260505160312 26 235 1.6 9.7 0.00 0.00 0.00 46 1016.1
20260505153250 25 124 0.0 6.4 0.00 0.00 0.00 48 1016.2
20260505152747 25 154 1.6 4.8 0.00 0.00 0.00 48 1016.3
20260505152244 25 148 0.0 6.4 0.00 0.00 0.00 49 1016.1
20260505151738 25 177 1.6 3.2 0.00 0.00 0.00 48 1016.2
20260505151236 25 197 1.6 3.2 0.00 0.00 0.00 49 1016.2
20260505150732 25 131 4.8 6.4 0.00 0.00 0.00 48 1016.3
20260505150230 25 142 3.2 4.8 0.00 0.00 0.00 50 1016.1
20260505140154 22 143 0.0 1.6 0.00 0.00 0.00 54 1016.1
20260505130118 20 222 0.0 1.6 0.00 0.00 0.00 61 1016.5
20260505124607 18 180 1.6 1.6 0.00 0.00 0.00 65 1016.5
20260505124104 18 177 1.6 3.2 0.00 0.00 0.00 67 1016.6
20260505123600 18 153 1.6 1.6 0.00 0.00 0.00 68 1016.5
20260505123057 18 179 1.6 1.6 0.00 0.00 0.00 68 1016.6
20260505122553 17 144 0.0 3.2 0.00 0.00 0.00 68 1016.6
20260505122051 17 166 1.6 4.8 0.00 0.00 0.00 70 1016.3
20260505121547 17 162 0.0 3.2 0.00 0.00 0.00 70 1016.7
20260505121044 17 154 0.0 3.2 0.00 0.00 0.00 71 1016.5
20260505120540 17 163 3.2 9.7 0.00 0.00 0.00 71 1016.5
20260505120036 17 189 3.2 11.3 0.00 0.00 0.00 72 1016.2
20260505115531 16 129 3.2 4.8 0.00 0.00 0.00 72 1016.2
20260505115029 16 139 1.6 6.4 0.00 0.00 0.00 75 1016.1
20260505114525 15 159 0.0 0.0 0.00 0.00 0.00 76 1016.2
20260505114022 15 124 0.0 1.6 0.00 0.00 0.00 75 1016.1
20260505113518 15 151 0.0 1.6 0.00 0.00 0.00 75 1016.0
20260505113014 15 166 3.2 6.4 0.00 0.00 0.00 76 1015.9
20260505112511 15 160 3.2 4.8 0.00 0.00 0.00 76 1015.9
20260505112009 15 144 1.6 4.8 0.00 0.00 0.00 77 1015.8
20260505111502 15 126 0.0 4.8 0.00 0.00 0.00 78 1015.7
20260505110959 14 156 0.0 3.2 0.00 0.00 0.00 80 1015.8
20260505110455 14 151 0.0 1.6 0.00 0.00 0.00 80 1015.7
20260505101927 14 156 0.0 1.6 0.00 0.00 0.00 79 1015.4
20260505101421 14 151 1.6 3.2 0.00 0.00 0.00 80 1015.5
20260505100917 14 151 0.0 1.6 0.00 0.00 0.00 79 1015.5
20260505100414 14 151 0.0 1.6 0.00 0.00 0.00 79 1015.1
20260505095909 15 141 0.0 0.0 0.00 0.00 0.00 78 1015.3
20260505095407 15 144 0.0 3.2 0.00 0.00 0.00 77 1015.4
20260505094903 14 116 0.0 0.0 0.00 0.00 0.00 78 1015.3
20260505094400 15 166 0.0 1.6 0.00 0.00 0.00 77 1015.2
20260505093855 15 135 0.0 1.6 0.00 0.00 0.00 76 1015.1
20260505093353 15 108 1.6 3.2 0.00 0.00 0.00 76 1015.2
20260505092850 15 159 1.6 1.6 0.00 0.00 0.00 75 1015.3
20260505092348 15 208 1.6 3.2 0.00 0.00 0.00 75 1015.0
20260505091845 15 181 1.6 3.2 0.00 0.00 0.00 75 1015.2
20260505091343 15 154 0.0 6.4 0.00 0.00 0.00 75 1015.0
20260505090841 15 155 0.0 0.0 0.00 0.00 0.00 75 1015.2
20260505090339 15 151 0.0 3.2 0.00 0.00 0.00 74 1015.2
20260505085836 15 126 0.0 1.6 0.00 0.00 0.00 74 1015.1
20260505085334 15 136 0.0 4.8 0.00 0.00 0.00 74 1015.1
20260505084831 15 166 0.0 3.2 0.00 0.00 0.00 73 1015.2
20260505084330 16 117 0.0 4.8 0.00 0.00 0.00 73 1015.1
20260505083826 16 168 0.0 3.2 0.00 0.00 0.00 72 1015.1
20260505083324 15 162 0.0 1.6 0.00 0.00 0.00 73 1015.0
20260505082820 15 121 0.0 9.7 0.00 0.00 0.00 73 1015.1
20260505082317 15 152 0.0 1.6 0.00 0.00 0.00 73 1015.1
20260505081813 15 153 0.0 1.6 0.00 0.00 0.00 73 1015.1
20260505081310 15 113 0.0 0.0 0.00 0.00 0.00 73 1015.2
20260505080807 15 141 0.0 1.6 0.00 0.00 0.00 72 1015.2
20260505080303 16 141 0.0 0.0 0.00 0.00 0.00 72 1015.0
20260505075758 16 193 1.6 1.6 0.00 0.00 0.00 72 1015.2
20260505075256 16 116 1.6 3.2 0.00 0.00 0.00 71 1015.1
20260505074753 16 195 0.0 1.6 0.00 0.00 0.00 71 1015.0
20260505074250 16 151 0.0 1.6 0.00 0.00 0.00 71 1015.1
20260505073747 16 162 0.0 1.6 0.00 0.00 0.00 71 1015.2
20260505073245 16 149 0.0 0.0 0.00 0.00 0.00 71 1014.9
20260505072742 16 174 0.0 1.6 0.00 0.00 0.00 70 1014.8
20260505072238 16 151 1.6 1.6 0.00 0.00 0.00 70 1014.7
20260505071733 16 145 0.0 3.2 0.00 0.00 0.00 70 1014.9
20260505071231 16 137 1.6 3.2 0.00 0.00 0.00 70 1014.8
20260505070728 16 141 0.0 0.0 0.00 0.00 0.00 70 1014.7
20260505070224 16 166 0.0 0.0 0.00 0.00 0.00 69 1014.5
20260505065720 16 162 1.6 1.6 0.00 0.00 0.00 69 1014.8
20260505065217 16 99 0.0 0.0 0.00 0.00 0.00 68 1015.0
20260505064714 16 141 0.0 1.6 0.00 0.00 0.00 67 1014.8
20260505064212 16 151 0.0 3.2 0.00 0.00 0.00 67 1014.6
20260505063709 16 173 0.0 3.2 0.00 0.00 0.00 66 1014.6
20260505063205 16 152 0.0 3.2 0.00 0.00 0.00 66 1014.5
20260505062701 16 154 0.0 1.6 0.00 0.00 0.00 65 1014.5
20260505062200 17 135 0.0 4.8 0.00 0.00 0.00 64 1014.5
20260505061656 17 132 3.2 9.7 0.00 0.00 0.00 64 1014.4
20260505061154 17 200 1.6 4.8 0.00 0.00 0.00 64 1014.3
20260505060651 17 141 0.0 3.2 0.00 0.00 0.00 64 1014.5
20260505060148 17 186 3.2 9.7 0.00 0.00 0.00 64 1014.6
20260505055643 17 155 0.0 1.6 0.00 0.00 0.00 63 1014.6
20260505055140 17 151 3.2 6.4 0.00 0.00 0.00 63 1014.5
20260505054638 17 145 0.0 3.2 0.00 0.00 0.00 63 1014.6
20260505054136 17 115 1.6 9.7 0.00 0.00 0.00 62 1014.6
20260505053633 17 151 1.6 4.8 0.00 0.00 0.00 62 1014.6
20260505053129 17 177 0.0 3.2 0.00 0.00 0.00 61 1014.6
20260505052626 17 183 0.0 4.8 0.00 0.00 0.00 61 1014.5
20260505052124 17 132 1.6 4.8 0.00 0.00 0.00 61 1014.6
20260505051621 17 123 1.6 6.4 0.00 0.00 0.00 59 1014.7
20260505051119 17 118 1.6 11.3 0.00 0.00 0.00 59 1014.6
20260505050616 17 160 3.2 9.7 0.00 0.00 0.00 58 1014.7
20260505050114 17 174 1.6 3.2 0.00 0.00 0.00 58 1014.5